TimeEST,TemperatureF,Dew PointF,Humidity,Sea Level PressureIn,VisibilityMPH,Wind Direction,Wind SpeedMPH,Gust SpeedMPH,PrecipitationIn,Events,Conditions,WindDirDegrees,DateUTC
12:15 AM,19.4,5.0,54,30.17,10.0,WSW,5.8,-,N/A,,Clear,240,2013-12-13 05:15:00
12:35 AM,19.4,5.0,54,30.16,10.0,SW,5.8,-,N/A,,Clear,230,2013-12-13 05:35:00
12:55 AM,17.6,3.2,53,30.16,10.0,SW,5.8,-,N/A,,Clear,230,2013-12-13 05:55:00
1:15 AM,19.4,3.2,49,30.16,10.0,SW,6.9,-,N/A,,Clear,230,2013-12-13 06:15:00
1:35 AM,19.4,3.2,49,30.16,10.0,SW,5.8,-,N/A,,Clear,220,2013-12-13 06:35:00
1:55 AM,17.6,3.2,53,30.16,10.0,SW,6.9,-,N/A,,Clear,230,2013-12-13 06:55:00
2:15 AM,17.6,5.0,58,30.16,10.0,SW,6.9,-,N/A,,Clear,230,2013-12-13 07:15:00
2:35 AM,17.6,5.0,58,30.15,10.0,SW,6.9,-,N/A,,Clear,220,2013-12-13 07:35:00
2:55 AM,17.6,5.0,58,30.16,10.0,SW,6.9,-,N/A,,Clear,230,2013-12-13 07:55:00
3:15 AM,17.6,6.8,63,30.16,10.0,SW,8.1,-,N/A,,Clear,230,2013-12-13 08:15:00
3:35 AM,17.6,6.8,63,30.16,10.0,SW,8.1,-,N/A,,Clear,230,2013-12-13 08:35:00
3:55 AM,19.4,6.8,58,30.16,10.0,SW,8.1,-,N/A,,Clear,230,2013-12-13 08:55:00
4:15 AM,19.4,6.8,58,30.16,10.0,SW,6.9,-,N/A,,Clear,230,2013-12-13 09:15:00
4:35 AM,19.4,6.8,58,30.16,10.0,SW,6.9,-,N/A,,Clear,230,2013-12-13 09:35:00
4:55 AM,19.4,6.8,58,30.16,10.0,WSW,9.2,-,N/A,,Clear,240,2013-12-13 09:55:00
5:15 AM,19.4,6.8,58,30.16,10.0,WSW,4.6,-,N/A,,Mostly Cloudy,240,2013-12-13 10:15:00
5:35 AM,19.4,6.8,58,30.16,10.0,WSW,5.8,-,N/A,,Overcast,250,2013-12-13 10:35:00
5:55 AM,19.4,6.8,58,30.17,10.0,WSW,4.6,-,N/A,,Overcast,250,2013-12-13 10:55:00
6:15 AM,21.2,6.8,54,30.17,10.0,SW,6.9,-,N/A,,Overcast,230,2013-12-13 11:15:00
6:35 AM,21.2,6.8,54,30.17,10.0,SW,5.8,-,N/A,,Overcast,230,2013-12-13 11:35:00
6:55 AM,21.2,8.6,58,30.18,10.0,SW,5.8,-,N/A,,Overcast,230,2013-12-13 11:55:00
7:15 AM,21.2,8.6,58,30.18,10.0,SW,6.9,-,N/A,,Overcast,220,2013-12-13 12:15:00
7:35 AM,21.2,8.6,58,30.19,10.0,WSW,5.8,-,N/A,,Overcast,240,2013-12-13 12:35:00
7:55 AM,21.2,8.6,58,30.19,10.0,WSW,5.8,-,N/A,,Overcast,250,2013-12-13 12:55:00
8:15 AM,23.0,8.6,54,30.19,10.0,West,5.8,-,N/A,,Overcast,260,2013-12-13 13:15:00
8:35 AM,24.8,10.4,54,30.20,10.0,West,5.8,-,N/A,,Overcast,280,2013-12-13 13:35:00
8:55 AM,26.6,10.4,51,30.20,10.0,West,9.2,-,N/A,,Overcast,270,2013-12-13 13:55:00
9:15 AM,28.4,10.4,47,30.20,10.0,West,9.2,-,N/A,,Overcast,270,2013-12-13 14:15:00
9:35 AM,30.2,10.4,44,30.20,10.0,West,11.5,17.3,N/A,,Overcast,270,2013-12-13 14:35:00
9:55 AM,30.2,10.4,44,30.21,10.0,West,12.7,19.6,N/A,,Scattered Clouds,260,2013-12-13 14:55:00
10:15 AM,30.2,10.4,44,30.21,10.0,West,11.5,-,N/A,,Clear,280,2013-12-13 15:15:00
10:35 AM,32.0,10.4,41,30.20,10.0,West,9.2,17.3,N/A,,Clear,270,2013-12-13 15:35:00
10:55 AM,33.8,10.4,38,30.19,10.0,West,15.0,19.6,N/A,,Clear,270,2013-12-13 15:55:00
11:15 AM,33.8,10.4,38,30.19,10.0,West,17.3,23.0,N/A,,Clear,260,2013-12-13 16:15:00
11:35 AM,33.8,10.4,38,30.17,10.0,WNW,11.5,20.7,N/A,,Clear,290,2013-12-13 16:35:00
11:55 AM,33.8,12.2,41,30.17,10.0,West,16.1,-,N/A,,Clear,270,2013-12-13 16:55:00
12:15 PM,35.6,12.2,38,30.17,10.0,West,13.8,19.6,N/A,,Clear,270,2013-12-13 17:15:00
12:35 PM,35.6,12.2,38,30.16,10.0,West,11.5,16.1,N/A,,Clear,260,2013-12-13 17:35:00
12:55 PM,35.6,12.2,38,30.16,10.0,West,12.7,-,N/A,,Clear,260,2013-12-13 17:55:00
1:15 PM,35.6,14.0,41,30.16,10.0,West,9.2,19.6,N/A,,Clear,270,2013-12-13 18:15:00
1:35 PM,35.6,14.0,41,30.16,10.0,West,13.8,19.6,N/A,,Clear,270,2013-12-13 18:35:00
1:55 PM,35.6,14.0,41,30.16,10.0,West,13.8,21.9,N/A,,Clear,280,2013-12-13 18:55:00
2:15 PM,35.6,14.0,41,30.16,10.0,West,15.0,21.9,N/A,,Clear,270,2013-12-13 19:15:00
2:35 PM,35.6,12.2,38,30.16,10.0,West,10.4,20.7,N/A,,Clear,260,2013-12-13 19:35:00
2:55 PM,35.6,14.0,41,30.16,10.0,West,16.1,20.7,N/A,,Clear,260,2013-12-13 19:55:00
3:15 PM,35.6,12.2,38,30.17,10.0,West,15.0,18.4,N/A,,Clear,270,2013-12-13 20:15:00
3:35 PM,35.6,12.2,38,30.17,10.0,West,12.7,17.3,N/A,,Clear,270,2013-12-13 20:35:00
3:55 PM,35.6,12.2,38,30.19,10.0,West,9.2,-,N/A,,Clear,280,2013-12-13 20:55:00
4:15 PM,33.8,12.2,41,30.19,10.0,West,9.2,-,N/A,,Clear,270,2013-12-13 21:15:00
4:35 PM,33.8,12.2,41,30.20,10.0,West,8.1,-,N/A,,Clear,260,2013-12-13 21:35:00
4:55 PM,33.8,12.2,41,30.21,10.0,West,9.2,-,N/A,,Clear,270,2013-12-13 21:55:00
5:15 PM,33.8,12.2,41,30.22,10.0,West,6.9,-,N/A,,Clear,260,2013-12-13 22:15:00
5:35 PM,33.8,12.2,41,30.23,10.0,WSW,5.8,-,N/A,,Clear,250,2013-12-13 22:35:00
5:55 PM,32.0,12.2,44,30.23,10.0,WSW,5.8,-,N/A,,Clear,250,2013-12-13 22:55:00
6:15 PM,32.0,12.2,44,30.23,10.0,WSW,4.6,-,N/A,,Clear,250,2013-12-13 23:15:00
6:35 PM,32.0,12.2,44,30.25,10.0,WSW,4.6,-,N/A,,Clear,240,2013-12-13 23:35:00
6:55 PM,30.2,12.2,47,30.25,10.0,West,3.5,-,N/A,,Clear,260,2013-12-13 23:55:00
7:15 PM,30.2,12.2,47,30.27,10.0,SW,3.5,-,N/A,,Clear,230,2013-12-14 00:15:00
7:35 PM,30.2,12.2,47,30.27,10.0,WSW,4.6,-,N/A,,Clear,250,2013-12-14 00:35:00
7:55 PM,30.2,12.2,47,30.29,10.0,WSW,3.5,-,N/A,,Clear,250,2013-12-14 00:55:00
8:15 PM,30.2,12.2,47,30.29,10.0,Calm,Calm,-,N/A,,Clear,0,2013-12-14 01:15:00
8:35 PM,30.2,12.2,47,30.29,10.0,Calm,Calm,-,N/A,,Clear,0,2013-12-14 01:35:00
8:55 PM,28.4,12.2,51,30.29,10.0,Calm,Calm,-,N/A,,Clear,0,2013-12-14 01:55:00
9:15 PM,28.4,12.2,51,30.29,10.0,Calm,Calm,-,N/A,,Clear,0,2013-12-14 02:15:00
9:35 PM,28.4,12.2,51,30.30,10.0,SW,3.5,-,N/A,,Clear,230,2013-12-14 02:35:00
9:55 PM,30.2,12.2,47,30.30,10.0,WSW,3.5,-,N/A,,Clear,240,2013-12-14 02:55:00
10:15 PM,30.2,12.2,47,30.30,10.0,SW,3.5,-,N/A,,Clear,230,2013-12-14 03:15:00
10:35 PM,30.2,12.2,47,30.31,10.0,SW,4.6,-,N/A,,Clear,230,2013-12-14 03:35:00
10:55 PM,30.2,12.2,47,30.32,10.0,SW,3.5,-,N/A,,Clear,230,2013-12-14 03:55:00
11:15 PM,30.2,14.0,51,30.33,10.0,Calm,Calm,-,N/A,,Clear,0,2013-12-14 04:15:00
11:35 PM,30.2,14.0,51,30.32,10.0,Calm,Calm,-,N/A,,Partly Cloudy,0,2013-12-14 04:35:00
11:55 PM,30.2,12.2,47,30.33,10.0,SW,3.5,-,N/A,,Clear,230,2013-12-14 04:55:00